Regional Weather Roundup
Issued by NWS San Angelo, TX

Home | Current Version | Previous Version | Text Only | Print | Product List | Glossary On
Versions: 1 2 3 4 5 6 7 8 9 10 11 12 13 14 15 16 17 18 19 20 21 22 23 24 25 26 27 28 29 30 31 32 33 34 35 36 37 38 39 40 41 42 43 44 45 46 47 48 49 50
000
ASUS44 KSJT 251211
RWRSJT
WEST CENTRAL TEXAS REGIONAL WEATHER ROUNDUP
NATIONAL WEATHER SERVICE SAN ANGELO TX
700 AM CDT MON JUL 25 2016

NOTE: "FAIR" INDICATES FEW OR NO CLOUDS BELOW 12,000 FEET WITH NO
SIGNIFICANT WEATHER AND/OR OBSTRUCTIONS TO VISIBILITY.

TXZ049-054-064>066-071>073-076>078-098-099-113-114-127-128-139-140-
154-155-168>170-251300
...LOCATIONS ACROSS WEST CENTRAL TEXAS...

CITY           SKY/WX    TMP DP  RH WIND       PRES   REMARKS
SAN ANGELO     CLEAR     74  64  71 E3        30.01R
ABILENE        CLEAR     77  66  68 SE6       30.02R
DYESS AFB      CLEAR     77  65  67 SE2       30.01R
JUNCTION       CLEAR     76  66  71 CALM      30.02R
SWEETWATER     CLEAR     76  64  65 S8        30.07R
BROWNWOOD      CLEAR     73  66  78 CALM      30.01S
COLEMAN        SUNNY     74  65  71 CALM      30.03R
SONORA         CLEAR     77  68  73 CALM      30.07R
OZONA          FAIR      73  64  73 S5        30.05S
BRADY          NOT AVBL
$$

TEXAS PANHANDLE/OKLAHOMA PANHANDLE

CITY           SKY/WX    TMP DP  RH WIND       PRES   REMARKS
AMARILLO       CLOUDY    69  63  81 N7        30.14R
BORGER         MOCLDY    71  67  87 N5        30.12R
CANADIAN       CLOUDY    72  68  87 CALM      30.07S
DALHART        MOCLDY    69  64  84 N9        30.19R
DUMAS          PTSUNNY   66  64  91 N6        30.16R
GUYMON         NOT AVBL
HEREFORD       SUNNY     68  62  80 N6        30.16R
PAMPA          CLOUDY    70  66  87 SE7       30.12S
PERRYTON       MOCLDY    69  67  93 N6        30.11R
$$

SOUTHERN PANHANDLE/SOUTH PLAINS/ROLLING PLAINS

CITY           SKY/WX    TMP DP  RH WIND       PRES   REMARKS
LUBBOCK        PTCLDY    69  60  73 N6        30.10R
SNYDER           N/A     74  63  67 SE6       30.05R
CHILDRESS      MOCLDY    79  67  66 NE7       30.04R
SEMINOLE       SUNNY     72  57  60 N5        30.10R
$$

PERMIAN BASIN

CITY           SKY/WX    TMP DP  RH WIND       PRES   REMARKS
MIDLAND        CLEAR     77  59  53 SE5       30.05R
ODESSA         CLEAR     78  59  51 SE6       30.06R
WINK           CLEAR     78  59  51 SE7       30.02R
$$

FAR WEST/SOUTHWEST MOUNTAINS/TRANS PECOS

CITY           SKY/WX    TMP DP  RH WIND       PRES   REMARKS
ALPINE         SUNNY     67  56  67 CALM      30.19R
DRYDEN           N/A     79  70  74 E8        29.99R
EL PASO        MOCLDY    80  53  39 N6        30.08R
FORT STOCKTON  CLEAR     76  66  71 S14       30.03R
GUADALUPE PASS CLEAR     73  53  49 NE12      30.22R
MARFA          CLEAR     64  55  72 VRB3      30.18R
PECOS          SUNNY     75  58  55 NE7       30.01R
$$

DALLAS/FORT WORTH METROPLEX

CITY           SKY/WX    TMP DP  RH WIND       PRES   REMARKS
DFW AIRPORT    MOCLDY    80  72  76 SE5       29.97R
FTW MEACHAM    CLEAR     82  72  71 SE6       29.97R
DAL-EXECUTIVE  CLOUDY    79  72  79 E3        29.98R
GRAND PRAIRIE  CLEAR     81  72  74 CALM      29.99R
ADDISON        CLEAR     81  72  74 S7        29.97F
MESQUITE       SUNNY     75  75 100 CALM      29.98R
LANCASTER      CLOUDY    78  73  84 CALM      29.99R
$$

NORTH CENTRAL TEXAS

CITY           SKY/WX    TMP DP  RH WIND       PRES   REMARKS
SHRMAN/DENISON CLOUDY    78  73  84 E5        30.00S
GAINESVILLE    CLEAR     75  71  87 CALM      30.01R
BRIDGEPORT     SUNNY     73  73 100 CALM      30.00R
DENTON         CLEAR     78  73  84 SE5       29.98R
WAXAHACHIE     SUNNY     76  74  93 S3        29.99R
GRANBURY       SUNNY     81  71  71 E5        29.99R
$$

WESTERN NORTH TEXAS

CITY           SKY/WX    TMP DP  RH WIND       PRES   REMARKS
WICHITA FALLS  PTCLDY    75  69  81 CALM      29.98R
VERNON         MOSUNNY   77  66  67 CALM      30.01R
BRECKENRIDGE   MOSUNNY   77  67  71 S3        29.99R
COMANCHE       CLEAR     75  69  80 CALM      30.01R
$$

CENTRAL AND SOUTH CENTRAL TEXAS

CITY           SKY/WX    TMP DP  RH WIND       PRES   REMARKS
AUSTIN/BERGSTM MOCLDY    79  76  90 SE3       29.97R
WACO           PTCLDY    80  72  76 S5        29.98R
HILLSBORO      SUNNY     76  73  88 SE3       29.98S
TEMPLE         PTCLDY    78  72  81 S3        29.99R
KILLEEN-GRAY   CLOUDY    78  70  78 CALM      29.99R
FORT HOOD      CLOUDY    77  70  79 CALM      29.97R
GEORGETOWN     PTCLDY    79  70  73 S3        29.98R
LAGO VISTA     FAIR      79  72  78 SW3       30.01R
SAN MARCOS     PTCLDY    77  75  94 CALM      29.99R
NEW BRAUNFELS  PTCLDY    76  74  93 SW5       29.96R
RANDOLPH AFB   PTCLDY    79  77  94 SW5       29.98R
SAN ANTONIO    MOCLDY    79  74  84 S7        29.98R
STINSON        CLOUDY    79  75  87 E3        29.96R
PLEASANTON     NOT AVBL
LA GRANGE        N/A     79  77  94 CALM      29.96R FOG
GIDDINGS       CLOUDY    77  74  91 CALM      30.02R
$$

EAST TEXAS

CITY           SKY/WX    TMP DP  RH WIND       PRES   REMARKS
PARIS          CLOUDY    75  64  69 SE7       30.01R
CLARKSVILLE    NOT AVBL
TYLER          CLOUDY    77  71  82 SE5       29.99R
LONGVIEW       CLOUDY    75  74  96 E3        29.99R
PALESTINE      CLOUDY    75  73  92 CALM      29.99R
NACOGDOCHES    CLOUDY   N/A N/A N/A CALM      29.97S
$$

TEXAS HILL COUNTRY AND EDWARDS PLATEAU

CITY           SKY/WX    TMP DP  RH WIND       PRES   REMARKS
LLANO          SUNNY     75  75 100 CALM      30.03R FOG
HORSESHOE BAY  FAIR      75  70  83 CALM      30.00R
KERRVILLE      CLOUDY    76  73  88 SE3       30.01S
FREDERICKSBRG  CLEAR     71  65  82 CALM      30.02R
ROCKSPRINGS    SUNNY     73  68  83 CALM      30.05S
HONDO          MOCLDY    76  73  91 E7        29.99R
UVALDE         SUNNY     74  70  89 NE6       29.97R
DEL RIO        CLEAR     80  70  71 E9        29.93R
$$

SOUTHEAST TEXAS

CITY           SKY/WX    TMP DP  RH WIND       PRES   REMARKS
COLLEGE STN    CLOUDY    80  76  87 S3        29.98R
CALDWELL       PTSUNNY   77  77 100 CALM      30.01R
CROCKETT       CLOUDY    75  72  88 E3        30.01R
BRENHAM        PTCLDY    78  77  95 CALM      29.98R
HUNTSVILLE     PTCLDY    78  75  90 CALM      29.98R
CONROE         CLOUDY    77  75  93 CALM      29.97R
HOUSTON BUSH   CLOUDY    80  76  87 CALM      29.96R
HOUSTON HOBBY  MOCLDY    82  76  81 NW3       29.95R
PERLAND        PTCLDY    81  76  84 CALM      29.96R
WHARTON        SUNNY     76  74  95 CALM      29.97R
$$

THE UPPER TEXAS COAST

CITY           SKY/WX    TMP DP  RH WIND       PRES   REMARKS
ORANGE         SUNNY     76  74  93 CALM      29.98R FOG
PORT ARTHUR    PTCLDY    79  77  94 N6        29.95R
GALVESTON      CLEAR     83  78  85 W7        29.95R
ANGLETON       PTCLDY    79  77  94 CALM      29.95R
BAY CITY       SUNNY     77  76  98 N3        29.95R
$$

TEXAS COASTAL BEND, RIO GRANDE PLAINS DEEP SOUTH TEXAS

CITY           SKY/WX    TMP DP  RH WIND       PRES   REMARKS
VICTORIA       PTCLDY    76  74  93 NE3       29.95R
BEEVILLE       FAIR      69  69 100 CALM      29.93R FOG
ROCKPORT       PTCLDY    83  75  77 S3        29.93R
PORT ARANSAS   MOSUNNY   83  77  83 S9        29.92R
PORT LAVACA    PTSUNNY   78  77  98 CALM      29.94R
CORPUS CHRISTI PTCLDY    78  76  93 SE5       29.92R
KINGSVILLE NAS MOCLDY    75  75 100 CALM      29.91R
COTULLA        CLEAR     79  74  84 E6        29.93R
LAREDO         CLOUDY    80  75  84 E6        29.92R
BROWNSVILLE    CLEAR     79  76  90 SE6       29.91R
PORT ISABEL    CLEAR     80  76  87 S6        29.90R
HEBBRONVILLE   PTSUNNY   77  74  93 SE5       29.93S
MCALLEN        CLEAR     80  76  87 SE6       29.91R FOG
WESLACO        PTCLDY    73  13  10 SE6       29.90R
FALFURRIAS     SUNNY     76  73  91 CALM      29.91S
EDINBURG       MOSUNNY   79  75  87 E3        29.90S
$$




USA.gov is the U.S. government's official web portal to all federal, state and local government web resources and services.